| time (UTC) | temp C | wind direction | speed KPH | gust KPH | rain 1hr cm | rain 24hr cm | rain mn cm | humidity % | barometer mb |
| 20260509174018 | 28 | 320 | 3.2 | 14.5 | 0.00 | 0.00 | 0.00 | 61 | 1010.8 |
| 20260509173518 | 27 | 340 | 3.2 | 9.7 | 0.00 | 0.00 | 0.00 | 61 | 1010.8 |
| 20260509173054 | 27 | 0 | 0.0 | 9.7 | 0.00 | 0.00 | 0.00 | 60 | 1010.8 |
| 20260509172519 | 27 | 279 | 0.0 | 11.3 | 0.00 | 0.00 | 0.00 | 61 | 1010.9 |
| 20260509172019 | 27 | 0 | 0.0 | 11.3 | 0.00 | 0.00 | 0.00 | 59 | 1010.9 |
| 20260509171551 | 27 | 279 | 4.8 | 11.3 | 0.00 | 0.00 | 0.00 | 60 | 1010.9 |
| 20260509171015 | 27 | 331 | 0.0 | 12.9 | 0.00 | 0.00 | 0.00 | 62 | 1011.0 |
| 20260509170518 | 27 | 0 | 4.8 | 12.9 | 0.00 | 0.00 | 0.00 | 59 | 1011.0 |
| 20260509170043 | 27 | 0 | 0.0 | 8.0 | 0.00 | 0.00 | 0.00 | 62 | 1011.0 |
| 20260509165518 | 27 | 0 | 0.0 | 8.0 | 0.00 | 0.00 | 0.00 | 62 | 1011.1 |
| 20260509165015 | 27 | 0 | 0.0 | 9.7 | 0.00 | 0.00 | 0.00 | 61 | 1011.0 |
| 20260509164547 | 27 | 0 | 0.0 | 14.5 | 0.00 | 0.00 | 0.00 | 64 | 1011.3 |
| 20260509164019 | 26 | 0 | 3.2 | 14.5 | 0.00 | 0.00 | 0.00 | 61 | 1011.3 |
| 20260509163520 | 26 | 273 | 0.0 | 14.5 | 0.00 | 0.00 | 0.00 | 64 | 1011.2 |
| 20260509163047 | 26 | 0 | 4.8 | 14.5 | 0.00 | 0.00 | 0.00 | 62 | 1011.3 |
| 20260509162516 | 26 | 294 | 4.8 | 14.5 | 0.00 | 0.00 | 0.00 | 64 | 1011.3 |
| 20260509162022 | 26 | 269 | 1.6 | 14.5 | 0.00 | 0.00 | 0.00 | 65 | 1011.3 |
| 20260509161535 | 26 | 269 | 6.4 | 16.1 | 0.00 | 0.00 | 0.00 | 64 | 1011.2 |
| 20260509161018 | 26 | 0 | 1.6 | 16.1 | 0.00 | 0.00 | 0.00 | 66 | 1011.2 |
| 20260509160519 | 25 | 284 | 6.4 | 16.1 | 0.00 | 0.00 | 0.00 | 65 | 1011.2 |
| 20260509160035 | 25 | 261 | 4.8 | 16.1 | 0.00 | 0.00 | 0.00 | 67 | 1011.2 |
| 20260509155515 | 25 | 0 | 3.2 | 16.1 | 0.00 | 0.00 | 0.00 | 68 | 1011.1 |
| 20260509155021 | 25 | 294 | 6.4 | 16.1 | 0.00 | 0.00 | 0.00 | 68 | 1011.2 |
| 20260509154542 | 25 | 272 | 4.8 | 16.1 | 0.00 | 0.00 | 0.00 | 68 | 1011.2 |
| 20260509154019 | 25 | 277 | 6.4 | 16.1 | 0.00 | 0.00 | 0.00 | 69 | 1011.1 |
| 20260509153519 | 25 | 278 | 8.0 | 16.1 | 0.00 | 0.00 | 0.00 | 69 | 1011.1 |
| 20260509153043 | 25 | 264 | 4.8 | 16.1 | 0.00 | 0.00 | 0.00 | 69 | 1011.1 |
| 20260509152519 | 24 | 0 | 4.8 | 17.7 | 0.00 | 0.00 | 0.00 | 70 | 1011.1 |
| 20260509152019 | 24 | 279 | 6.4 | 17.7 | 0.00 | 0.00 | 0.00 | 70 | 1011.1 |
| 20260509151539 | 24 | 294 | 8.0 | 17.7 | 0.00 | 0.00 | 0.00 | 69 | 1011.2 |
| 20260509151019 | 24 | 284 | 8.0 | 14.5 | 0.00 | 0.00 | 0.00 | 69 | 1011.1 |
| 20260509150517 | 24 | 252 | 8.0 | 14.5 | 0.00 | 0.00 | 0.00 | 70 | 1011.2 |
| 20260509150035 | 24 | 253 | 6.4 | 20.9 | 0.00 | 0.00 | 0.00 | 70 | 1011.2 |
| 20260509145516 | 24 | 189 | 4.8 | 20.9 | 0.00 | 0.00 | 0.00 | 69 | 1011.3 |
| 20260509145018 | 24 | 0 | 0.0 | 16.1 | 0.00 | 0.00 | 0.00 | 70 | 1011.2 |
| 20260509144544 | 24 | 0 | 0.0 | 16.1 | 0.00 | 0.00 | 0.00 | 71 | 1011.3 |
| 20260509144016 | 24 | 0 | 0.0 | 14.5 | 0.00 | 0.00 | 0.00 | 70 | 1011.3 |
| 20260509143516 | 24 | 281 | 4.8 | 19.3 | 0.00 | 0.00 | 0.00 | 70 | 1011.3 |
| 20260509143035 | 24 | 292 | 8.0 | 19.3 | 0.00 | 0.00 | 0.00 | 71 | 1011.2 |
| 20260509142515 | 24 | 0 | 0.0 | 6.4 | 0.00 | 0.00 | 0.00 | 73 | 1011.1 |
| 20260509142021 | 24 | 0 | 0.0 | 6.4 | 0.00 | 0.00 | 0.00 | 76 | 1011.1 |
| 20260509141537 | 24 | 0 | 0.0 | 0.0 | 0.00 | 0.00 | 0.00 | 79 | 1011.2 |
| 20260509141016 | 23 | 0 | 0.0 | 0.0 | 0.00 | 0.00 | 0.00 | 80 | 1011.1 |
| 20260509140515 | 23 | 0 | 0.0 | 0.0 | 0.00 | 0.00 | 0.00 | 81 | 1011.2 |
| 20260509140041 | 23 | 0 | 0.0 | 0.0 | 0.00 | 0.00 | 0.00 | 82 | 1011.2 |
| 20260509135520 | 22 | 0 | 0.0 | 0.0 | 0.00 | 0.00 | 0.00 | 83 | 1011.2 |
| 20260509135020 | 22 | 0 | 0.0 | 0.0 | 0.00 | 0.00 | 0.00 | 84 | 1011.1 |
| 20260509134550 | 22 | 0 | 0.0 | 0.0 | 0.00 | 0.00 | 0.00 | 84 | 1011.1 |
| 20260509134016 | 22 | 0 | 0.0 | 0.0 | 0.00 | 0.00 | 0.00 | 85 | 1011.2 |
| 20260509133516 | 22 | 0 | 0.0 | 0.0 | 0.00 | 0.00 | 0.00 | 86 | 1011.2 |
| 20260509133037 | 21 | 0 | 0.0 | 0.0 | 0.00 | 0.00 | 0.00 | 86 | 1011.1 |
| 20260509132516 | 21 | 0 | 0.0 | 0.0 | 0.00 | 0.00 | 0.00 | 87 | 1011.0 |
| 20260509132016 | 21 | 0 | 0.0 | 0.0 | 0.00 | 0.00 | 0.00 | 88 | 1011.1 |
| 20260509131552 | 21 | 0 | 0.0 | 0.0 | 0.00 | 0.00 | 0.00 | 89 | 1011.0 |
| 20260509131015 | 21 | 0 | 0.0 | 0.0 | 0.00 | 0.00 | 0.00 | 90 | 1011.0 |
| 20260509130518 | 20 | 0 | 0.0 | 0.0 | 0.00 | 0.00 | 0.00 | 91 | 1011.0 |
| 20260509130047 | 20 | 0 | 0.0 | 0.0 | 0.00 | 0.00 | 0.00 | 91 | 1011.1 |
| 20260509125516 | 20 | 0 | 0.0 | 0.0 | 0.00 | 0.00 | 0.00 | 91 | 1011.1 |
| 20260509125022 | 20 | 0 | 0.0 | 4.8 | 0.00 | 0.00 | 0.00 | 92 | 1011.0 |
| 20260509124541 | 19 | 0 | 0.0 | 9.7 | 0.00 | 0.00 | 0.00 | 92 | 1011.0 |
| 20260509124018 | 19 | 281 | 3.2 | 9.7 | 0.00 | 0.00 | 0.00 | 92 | 1011.0 |
| 20260509123518 | 19 | 285 | 0.0 | 6.4 | 0.00 | 0.00 | 0.00 | 93 | 1010.9 |
| 20260509123048 | 19 | 0 | 0.0 | 4.8 | 0.00 | 0.00 | 0.00 | 93 | 1010.8 |
| 20260509122516 | 19 | 0 | 0.0 | 3.2 | 0.00 | 0.00 | 0.00 | 93 | 1010.8 |
| 20260509122018 | 18 | 0 | 0.0 | 6.4 | 0.00 | 0.00 | 0.00 | 93 | 1010.8 |
| 20260509121537 | 18 | 0 | 0.0 | 6.4 | 0.00 | 0.00 | 0.00 | 93 | 1010.8 |
| 20260509121019 | 18 | 0 | 0.0 | 0.0 | 0.00 | 0.00 | 0.00 | 93 | 1010.7 |
| 20260509120519 | 18 | 0 | 0.0 | 0.0 | 0.00 | 0.00 | 0.00 | 93 | 1010.6 |
| 20260509120034 | 18 | 0 | 0.0 | 0.0 | 0.00 | 0.00 | 0.00 | 93 | 1010.7 |
| 20260509115515 | 18 | 0 | 0.0 | 0.0 | 0.00 | 0.00 | 0.00 | 93 | 1010.6 |
| 20260509115021 | 18 | 0 | 0.0 | 0.0 | 0.00 | 0.00 | 0.00 | 93 | 1010.7 |
| 20260509114531 | 18 | 0 | 0.0 | 0.0 | 0.00 | 0.00 | 0.00 | 93 | 1010.8 |
| 20260509114016 | 18 | 0 | 0.0 | 0.0 | 0.00 | 0.00 | 0.00 | 93 | 1010.7 |
| 20260509113521 | 18 | 0 | 0.0 | 0.0 | 0.00 | 0.00 | 0.00 | 93 | 1010.6 |
| 20260509113046 | 19 | 0 | 0.0 | 0.0 | 0.00 | 0.00 | 0.00 | 93 | 1010.5 |
| 20260509112515 | 19 | 0 | 0.0 | 1.6 | 0.00 | 0.00 | 0.00 | 93 | 1010.4 |
| 20260509112016 | 18 | 0 | 0.0 | 1.6 | 0.00 | 0.00 | 0.00 | 93 | 1010.4 |
| 20260509111536 | 18 | 0 | 0.0 | 9.7 | 0.00 | 0.00 | 0.00 | 93 | 1010.3 |
| 20260509111020 | 18 | 0 | 0.0 | 9.7 | 0.00 | 0.00 | 0.00 | 93 | 1010.2 |
| 20260509110516 | 18 | 272 | 3.2 | 9.7 | 0.00 | 0.00 | 0.00 | 93 | 1010.0 |
| 20260509110039 | 18 | 217 | 0.0 | 6.4 | 0.00 | 0.00 | 0.00 | 93 | 1010.0 |
| 20260509105516 | 18 | 211 | 0.0 | 6.4 | 0.00 | 0.28 | 0.00 | 93 | 1010.1 |
| 20260509105019 | 18 | 0 | 0.0 | 3.2 | 0.00 | 0.28 | 0.00 | 92 | 1010.0 |
| 20260509104542 | 18 | 0 | 0.0 | 9.7 | 0.00 | 0.28 | 0.00 | 92 | 1010.1 |
| 20260509104015 | 18 | 0 | 0.0 | 9.7 | 0.00 | 0.28 | 0.00 | 92 | 1009.9 |
| 20260509103515 | 19 | 262 | 3.2 | 9.7 | 0.00 | 0.28 | 0.00 | 92 | 1009.5 |
| 20260509103032 | 19 | 263 | 3.2 | 9.7 | 0.00 | 0.28 | 0.00 | 92 | 1009.4 |
| 20260509102520 | 19 | 273 | 3.2 | 6.4 | 0.00 | 0.28 | 0.00 | 92 | 1009.3 |
| 20260509102020 | 19 | 355 | 0.0 | 3.2 | 0.00 | 0.28 | 0.00 | 91 | 1009.4 |
| 20260509101541 | 19 | 0 | 0.0 | 4.8 | 0.00 | 0.28 | 0.00 | 91 | 1009.5 |
| 20260509101016 | 19 | 0 | 0.0 | 4.8 | 0.00 | 0.28 | 0.00 | 91 | 1009.5 |
| 20260509100517 | 19 | 0 | 0.0 | 4.8 | 0.00 | 0.28 | 0.00 | 91 | 1009.3 |
| 20260509100040 | 19 | 0 | 0.0 | 1.6 | 0.00 | 0.28 | 0.00 | 91 | 1009.2 |
| 20260509095515 | 19 | 0 | 0.0 | 1.6 | 0.00 | 0.28 | 0.00 | 91 | 1008.9 |
| 20260509095016 | 19 | 360 | 0.0 | 3.2 | 0.00 | 0.28 | 0.00 | 91 | 1009.0 |
| 20260509094534 | 19 | 0 | 0.0 | 6.4 | 0.00 | 0.28 | 0.00 | 91 | 1008.7 |
| 20260509094016 | 20 | 360 | 0.0 | 8.0 | 0.00 | 0.28 | 0.00 | 91 | 1008.6 |
| 20260509093516 | 20 | 352 | 3.2 | 12.9 | 0.00 | 0.28 | 0.00 | 90 | 1008.4 |
| 20260509093035 | 20 | 360 | 4.8 | 19.3 | 0.00 | 0.28 | 0.00 | 90 | 1008.3 |
| 20260509092518 | 20 | 360 | 4.8 | 19.3 | 0.00 | 0.28 | 0.00 | 90 | 1008.1 |
| 20260509092016 | 20 | 5 | 9.7 | 24.1 | 0.00 | 0.28 | 0.00 | 90 | 1007.9 |
| 20260509091531 | 20 | 323 | 11.3 | 24.1 | 0.00 | 0.28 | 0.00 | 90 | 1007.7 |
| 20260509091019 | 20 | 348 | 9.7 | 27.4 | 0.00 | 0.28 | 0.00 | 89 | 1007.7 |
| 20260509090517 | 20 | 313 | 11.3 | 27.4 | 0.00 | 0.28 | 0.00 | 89 | 1007.7 |
| 20260509090035 | 20 | 345 | 12.9 | 22.5 | 0.00 | 0.28 | 0.00 | 89 | 1007.7 |
| 20260509085517 | 20 | 11 | 8.0 | 22.5 | 0.00 | 0.28 | 0.00 | 88 | 1007.7 |
| 20260509085016 | 20 | 325 | 11.3 | 22.5 | 0.00 | 0.28 | 0.00 | 87 | 1007.7 |
| 20260509084539 | 21 | 329 | 8.0 | 19.3 | 0.00 | 0.28 | 0.00 | 85 | 1007.7 |
| 20260509084016 | 21 | 5 | 4.8 | 17.7 | 0.00 | 0.28 | 0.00 | 84 | 1007.6 |
| 20260509083521 | 21 | 254 | 8.0 | 22.5 | 0.00 | 0.28 | 0.00 | 83 | 1007.5 |
| 20260509083043 | 21 | 261 | 11.3 | 22.5 | 0.00 | 0.28 | 0.00 | 82 | 1007.6 |
| 20260509082516 | 21 | 279 | 12.9 | 22.5 | 0.00 | 0.28 | 0.00 | 82 | 1007.7 |
| 20260509082016 | 20 | 271 | 8.0 | 20.9 | 0.00 | 0.28 | 0.00 | 83 | 1007.6 |
| 20260509081542 | 20 | 290 | 3.2 | 12.9 | 0.00 | 0.28 | 0.00 | 85 | 1007.6 |
| 20260509081021 | 20 | 305 | 3.2 | 6.4 | 0.00 | 0.28 | 0.00 | 85 | 1007.2 |
| 20260509080516 | 20 | 0 | 0.0 | 4.8 | 0.00 | 0.28 | 0.00 | 85 | 1006.7 |
| 20260509080036 | 20 | 0 | 0.0 | 8.0 | 0.00 | 0.28 | 0.00 | 85 | 1006.6 |
| 20260509075517 | 20 | 0 | 0.0 | 8.0 | 0.00 | 0.28 | 0.00 | 86 | 1006.5 |
| 20260509075016 | 20 | 131 | 0.0 | 9.7 | 0.00 | 0.28 | 0.00 | 87 | 1006.6 |
| 20260509074535 | 20 | 0 | 1.6 | 20.9 | 0.00 | 0.28 | 0.00 | 88 | 1006.6 |
| 20260509074016 | 20 | 111 | 4.8 | 27.4 | 0.00 | 0.28 | 0.00 | 89 | 1006.7 |
| 20260509073516 | 20 | 154 | 8.0 | 27.4 | 0.00 | 0.28 | 0.00 | 90 | 1007.2 |
| 20260509073037 | 20 | 175 | 11.3 | 27.4 | 0.00 | 0.28 | 0.00 | 90 | 1007.6 |
| 20260509072525 | 20 | 157 | 11.3 | 20.9 | 0.00 | 0.28 | 0.00 | 91 | 1008.0 |
| 20260509072022 | 20 | 150 | 11.3 | 22.5 | 0.00 | 0.28 | 0.00 | 92 | 1008.3 |
| 20260509071538 | 20 | 121 | 8.0 | 22.5 | 0.00 | 0.28 | 0.00 | 92 | 1008.8 |
| 20260509071020 | 20 | 115 | 6.4 | 20.9 | 0.00 | 0.28 | 0.00 | 92 | 1009.2 |
| 20260509070516 | 20 | 182 | 8.0 | 20.9 | 0.00 | 0.28 | 0.00 | 92 | 1009.5 |
| 20260509070036 | 20 | 156 | 9.7 | 19.3 | 0.00 | 0.28 | 0.00 | 92 | 1009.3 |
| 20260509065515 | 20 | 155 | 9.7 | 19.3 | 0.00 | 0.28 | 0.00 | 92 | 1009.5 |
| 20260509065024 | 20 | 138 | 8.0 | 16.1 | 0.00 | 0.28 | 0.00 | 93 | 1009.8 |
| 20260509064541 | 19 | 144 | 6.4 | 12.9 | 0.00 | 0.28 | 0.00 | 93 | 1010.1 |
| 20260509064022 | 19 | 161 | 3.2 | 8.0 | 0.00 | 0.28 | 0.00 | 93 | 1010.3 |
| 20260509063516 | 19 | 0 | 1.6 | 9.7 | 0.00 | 0.28 | 0.00 | 93 | 1010.4 |
| 20260509063035 | 18 | 159 | 1.6 | 11.3 | 0.00 | 0.28 | 0.00 | 92 | 1010.4 |
| 20260509062516 | 18 | 0 | 3.2 | 11.3 | 0.00 | 0.28 | 0.00 | 92 | 1010.5 |
| 20260509062017 | 18 | 156 | 0.0 | 3.2 | 0.00 | 0.28 | 0.00 | 92 | 1010.6 |
| 20260509061537 | 18 | 0 | 0.0 | 0.0 | 0.00 | 0.28 | 0.00 | 93 | 1011.0 |
| 20260509061016 | 18 | 0 | 0.0 | 0.0 | 0.00 | 0.28 | 0.00 | 92 | 1011.1 |
| 20260509060517 | 18 | 0 | 0.0 | 3.2 | 0.00 | 0.28 | 0.00 | 92 | 1011.1 |
| 20260509060036 | 18 | 0 | 0.0 | 3.2 | 0.00 | 0.28 | 0.00 | 92 | 1011.1 |
| 20260509055516 | 18 | 0 | 0.0 | 6.4 | 0.00 | 0.28 | 0.00 | 92 | 1011.0 |
| 20260509055016 | 18 | 0 | 1.6 | 6.4 | 0.00 | 0.28 | 0.00 | 91 | 1010.9 |
| 20260509054542 | 18 | 163 | 0.0 | 6.4 | 0.00 | 0.28 | 0.00 | 91 | 1011.0 |
| 20260509054018 | 18 | 0 | 0.0 | 6.4 | 0.00 | 0.28 | 0.00 | 90 | 1011.1 |
| 20260509053521 | 18 | 163 | 0.0 | 6.4 | 0.00 | 0.28 | 0.00 | 90 | 1010.8 |
| 20260509053115 | 19 | 0 | 0.0 | 0.0 | 0.00 | 0.28 | 0.00 | 89 | 1010.7 |
| 20260509052520 | 19 | 0 | 0.0 | 3.2 | 0.00 | 0.28 | 0.00 | 89 | 1010.6 |
| 20260509052015 | 19 | 0 | 0.0 | 3.2 | 0.00 | 0.28 | 0.00 | 89 | 1010.7 |
| 20260509051542 | 20 | 0 | 1.6 | 4.8 | 0.00 | 0.28 | 0.00 | 89 | 1010.8 |
| 20260509051016 | 20 | 254 | 1.6 | 4.8 | 0.00 | 0.28 | 0.00 | 89 | 1010.8 |
| 20260509050516 | 20 | 256 | 1.6 | 4.8 | 0.00 | 0.28 | 0.00 | 88 | 1011.1 |
| 20260509050040 | 20 | 0 | 0.0 | 0.0 | 0.00 | 0.28 | 0.00 | 88 | 1011.6 |
| 20260509045516 | 20 | 0 | 0.0 | 3.2 | 0.00 | 0.28 | 0.28 | 88 | 1011.7 |
| 20260509045018 | 20 | 0 | 0.0 | 12.9 | 0.00 | 0.28 | 0.28 | 88 | 1012.0 |
| 20260509044534 | 20 | 0 | 1.6 | 14.5 | 0.00 | 0.28 | 0.28 | 89 | 1012.1 |
| 20260509044015 | 20 | 0 | 4.8 | 14.5 | 0.00 | 0.28 | 0.28 | 89 | 1012.4 |
| 20260509043517 | 20 | 304 | 4.8 | 14.5 | 0.00 | 0.28 | 0.28 | 89 | 1012.2 |
| 20260509043035 | 20 | 291 | 8.0 | 14.5 | 0.00 | 0.28 | 0.28 | 89 | 1012.2 |
| 20260509042519 | 20 | 298 | 3.2 | 6.4 | 0.00 | 0.28 | 0.28 | 88 | 1011.5 |
| 20260509042016 | 20 | 0 | 0.0 | 3.2 | 0.00 | 0.28 | 0.28 | 87 | 1010.8 |
| 20260509041535 | 20 | 0 | 0.0 | 4.8 | 0.00 | 0.28 | 0.28 | 87 | 1010.6 |
| 20260509041017 | 20 | 71 | 0.0 | 6.4 | 0.00 | 0.28 | 0.28 | 87 | 1010.6 |
| 20260509040519 | 20 | 0 | 0.0 | 9.7 | 0.00 | 0.28 | 0.28 | 87 | 1010.2 |
| 20260509040046 | 20 | 71 | 3.2 | 9.7 | 0.00 | 0.28 | 0.28 | 87 | 1010.1 |
| 20260509035516 | 20 | 74 | 4.8 | 9.7 | 0.00 | 0.28 | 0.28 | 87 | 1009.9 |
| 20260509035016 | 20 | 64 | 3.2 | 12.9 | 0.00 | 0.28 | 0.28 | 87 | 1009.8 |
| 20260509034535 | 20 | 101 | 3.2 | 12.9 | 0.00 | 0.28 | 0.28 | 87 | 1009.7 |
| 20260509034017 | 20 | 91 | 6.4 | 14.5 | 0.00 | 0.28 | 0.28 | 86 | 1009.8 |
| 20260509033516 | 20 | 71 | 6.4 | 14.5 | 0.00 | 0.28 | 0.28 | 86 | 1009.7 |
| 20260509033035 | 20 | 78 | 6.4 | 14.5 | 0.00 | 0.28 | 0.28 | 87 | 1009.7 |
| 20260509032516 | 20 | 73 | 4.8 | 12.9 | 0.00 | 0.28 | 0.28 | 87 | 1009.8 |
| 20260509032018 | 20 | 57 | 3.2 | 9.7 | 0.00 | 0.28 | 0.28 | 86 | 1009.9 |
| 20260509031543 | 20 | 57 | 3.2 | 12.9 | 0.00 | 0.28 | 0.28 | 87 | 1009.9 |
| 20260509031017 | 20 | 63 | 3.2 | 14.5 | 0.00 | 0.28 | 0.28 | 87 | 1009.9 |
| 20260509030521 | 20 | 19 | 4.8 | 14.5 | 0.00 | 0.28 | 0.28 | 87 | 1009.9 |
| 20260509030042 | 20 | 19 | 6.4 | 14.5 | 0.00 | 0.28 | 0.28 | 87 | 1010.2 |
| 20260509025518 | 20 | 350 | 6.4 | 16.1 | 0.00 | 0.28 | 0.28 | 87 | 1010.3 |
| 20260509025020 | 20 | 355 | 6.4 | 16.1 | 0.00 | 0.28 | 0.28 | 87 | 1010.4 |
| 20260509024537 | 20 | 329 | 4.8 | 12.9 | 0.00 | 0.28 | 0.28 | 87 | 1010.2 |
| 20260509024019 | 20 | 315 | 4.8 | 9.7 | 0.00 | 0.28 | 0.28 | 86 | 1009.9 |
| 20260509023519 | 20 | 355 | 1.6 | 4.8 | 0.00 | 0.28 | 0.28 | 85 | 1009.5 |
| 20260509023045 | 21 | 58 | 1.6 | 9.7 | 0.00 | 0.28 | 0.28 | 85 | 1009.2 |
| 20260509022523 | 21 | 59 | 1.6 | 12.9 | 0.00 | 0.28 | 0.28 | 85 | 1009.0 |
| 20260509022019 | 21 | 61 | 4.8 | 14.5 | 0.00 | 0.28 | 0.28 | 85 | 1008.5 |
| 20260509021541 | 21 | 74 | 8.0 | 14.5 | 0.00 | 0.28 | 0.28 | 86 | 1008.2 |
| 20260509021018 | 21 | 78 | 6.4 | 16.1 | 0.00 | 0.28 | 0.28 | 86 | 1008.1 |
| 20260509020520 | 21 | 69 | 6.4 | 16.1 | 0.00 | 0.28 | 0.28 | 85 | 1007.8 |
| 20260509020045 | 21 | 68 | 4.8 | 14.5 | 0.00 | 0.28 | 0.28 | 85 | 1007.9 |
| 20260509015519 | 21 | 81 | 3.2 | 12.9 | 0.00 | 0.28 | 0.28 | 85 | 1008.0 |
| 20260509015019 | 21 | 93 | 3.2 | 14.5 | 0.00 | 0.28 | 0.28 | 84 | 1007.9 |
| 20260509014538 | 21 | 84 | 4.8 | 14.5 | 0.00 | 0.28 | 0.28 | 84 | 1007.8 |
| 20260509014018 | 21 | 77 | 4.8 | 12.9 | 0.00 | 0.28 | 0.28 | 84 | 1007.8 |
| 20260509013518 | 21 | 80 | 1.6 | 12.9 | 0.00 | 0.28 | 0.28 | 83 | 1007.7 |
| 20260509013052 | 21 | 0 | 0.0 | 1.6 | 0.00 | 0.28 | 0.28 | 82 | 1007.8 |
| 20260509012518 | 21 | 0 | 0.0 | 0.0 | 0.00 | 0.28 | 0.28 | 82 | 1007.9 |
| 20260509012026 | 21 | 0 | 0.0 | 0.0 | 0.00 | 0.28 | 0.28 | 81 | 1007.9 |
| 20260509011539 | 22 | 0 | 0.0 | 0.0 | 0.00 | 0.28 | 0.28 | 81 | 1008.1 |
| 20260509011020 | 22 | 0 | 0.0 | 0.0 | 0.00 | 0.28 | 0.28 | 81 | 1008.2 |
| 20260509010519 | 22 | 0 | 0.0 | 0.0 | 0.00 | 0.28 | 0.28 | 80 | 1008.2 |
| 20260509010035 | 22 | 0 | 0.0 | 0.0 | 0.00 | 0.28 | 0.28 | 80 | 1008.3 |
| 20260509005521 | 22 | 0 | 0.0 | 0.0 | 0.00 | 0.28 | 0.28 | 80 | 1008.5 |
| 20260509005019 | 22 | 0 | 0.0 | 6.4 | 0.00 | 0.28 | 0.28 | 80 | 1008.4 |
| 20260509004541 | 22 | 0 | 0.0 | 9.7 | 0.00 | 0.28 | 0.28 | 79 | 1008.4 |
| 20260509004019 | 22 | 143 | 3.2 | 11.3 | 0.00 | 0.28 | 0.28 | 79 | 1008.3 |
| 20260509003519 | 22 | 111 | 1.6 | 11.3 | 0.00 | 0.28 | 0.28 | 78 | 1008.2 |
| 20260509003054 | 22 | 148 | 3.2 | 9.7 | 0.00 | 0.28 | 0.28 | 78 | 1008.1 |
| 20260509002518 | 22 | 146 | 1.6 | 8.0 | 0.00 | 0.28 | 0.28 | 78 | 1008.0 |
| 20260509002018 | 23 | 146 | 3.2 | 9.7 | 0.00 | 0.28 | 0.28 | 77 | 1008.1 |
| 20260509001534 | 23 | 0 | 1.6 | 12.9 | 0.00 | 0.28 | 0.28 | 77 | 1008.0 |
| 20260509001019 | 23 | 134 | 3.2 | 14.5 | 0.00 | 0.28 | 0.28 | 77 | 1007.9 |
| 20260509000524 | 23 | 121 | 3.2 | 14.5 | 0.00 | 0.28 | 0.28 | 77 | 1007.8 |
| 20260509000044 | 23 | 154 | 4.8 | 14.5 | 0.00 | 0.28 | 0.28 | 76 | 1007.8 |
| 20260508235519 | 23 | 102 | 3.2 | 11.3 | 0.00 | 0.28 | 0.28 | 76 | 1007.8 |
| 20260508235018 | 23 | 140 | 3.2 | 11.3 | 0.00 | 0.28 | 0.28 | 76 | 1007.9 |
| 20260508234535 | 23 | 105 | 1.6 | 12.9 | 0.00 | 0.28 | 0.28 | 76 | 1007.9 |
| 20260508234020 | 23 | 142 | 3.2 | 17.7 | 0.00 | 0.28 | 0.28 | 75 | 1008.0 |
| 20260508233519 | 23 | 151 | 4.8 | 17.7 | 0.00 | 0.28 | 0.28 | 75 | 1008.1 |
| 20260508233036 | 23 | 84 | 3.2 | 17.7 | 0.00 | 0.28 | 0.28 | 75 | 1008.1 |
| 20260508232519 | 23 | 86 | 3.2 | 16.1 | 0.00 | 0.28 | 0.28 | 74 | 1008.1 |
| 20260508232019 | 23 | 150 | 3.2 | 16.1 | 0.00 | 0.28 | 0.28 | 74 | 1008.2 |
| 20260508231539 | 23 | 139 | 4.8 | 16.1 | 0.00 | 0.28 | 0.28 | 73 | 1008.2 |
| 20260508231017 | 23 | 104 | 4.8 | 16.1 | 0.00 | 0.28 | 0.28 | 72 | 1008.1 |
| 20260508230518 | 23 | 133 | 4.8 | 12.9 | 0.00 | 0.28 | 0.28 | 72 | 1008.0 |
| 20260508230040 | 24 | 162 | 6.4 | 19.3 | 0.00 | 0.28 | 0.28 | 71 | 1008.1 |
| 20260508225524 | 24 | 80 | 4.8 | 19.3 | 0.00 | 0.28 | 0.28 | 72 | 1008.1 |
| 20260508225018 | 24 | 88 | 1.6 | 16.1 | 0.00 | 0.28 | 0.28 | 72 | 1008.1 |
| 20260508224543 | 24 | 72 | 1.6 | 16.1 | 0.00 | 0.28 | 0.28 | 72 | 1008.1 |
| 20260508224017 | 24 | 74 | 4.8 | 16.1 | 0.00 | 0.28 | 0.28 | 72 | 1008.1 |
| 20260508223524 | 24 | 101 | 3.2 | 20.9 | 0.00 | 0.28 | 0.28 | 72 | 1008.2 |
| 20260508223042 | 24 | 88 | 9.7 | 20.9 | 0.00 | 0.28 | 0.28 | 73 | 1008.3 |
| 20260508222519 | 24 | 81 | 9.7 | 19.3 | 0.00 | 0.28 | 0.28 | 72 | 1008.3 |
| 20260508222020 | 24 | 75 | 6.4 | 16.1 | 0.00 | 0.28 | 0.28 | 71 | 1008.3 |
| 20260508221536 | 24 | 123 | 3.2 | 16.1 | 0.00 | 0.28 | 0.28 | 71 | 1008.2 |
| 20260508221017 | 24 | 138 | 3.2 | 16.1 | 0.00 | 0.28 | 0.28 | 71 | 1008.4 |
| 20260508220521 | 24 | 151 | 6.4 | 16.1 | 0.00 | 0.28 | 0.28 | 70 | 1008.3 |
| 20260508220035 | 24 | 136 | 4.8 | 11.3 | 0.00 | 0.28 | 0.28 | 71 | 1008.4 |
| 20260508215516 | 24 | 117 | 1.6 | 12.9 | 0.00 | 0.28 | 0.28 | 71 | 1008.4 |
| 20260508215020 | 25 | 123 | 4.8 | 12.9 | 0.00 | 0.28 | 0.28 | 70 | 1008.4 |
| 20260508214541 | 25 | 101 | 3.2 | 12.9 | 0.00 | 0.28 | 0.28 | 72 | 1008.4 |
| 20260508214017 | 25 | 142 | 3.2 | 14.5 | 0.00 | 0.28 | 0.28 | 72 | 1008.5 |
| 20260508213518 | 24 | 167 | 4.8 | 16.1 | 0.00 | 0.28 | 0.28 | 72 | 1008.5 |
| 20260508213041 | 24 | 92 | 4.8 | 16.1 | 0.00 | 0.28 | 0.28 | 72 | 1008.6 |
| 20260508212520 | 24 | 132 | 6.4 | 17.7 | 0.00 | 0.28 | 0.28 | 72 | 1008.6 |
| 20260508212018 | 24 | 87 | 8.0 | 17.7 | 0.00 | 0.28 | 0.28 | 71 | 1008.6 |
| 20260508211537 | 24 | 128 | 4.8 | 14.5 | 0.00 | 0.28 | 0.28 | 71 | 1008.5 |
| 20260508211023 | 24 | 115 | 4.8 | 17.7 | 0.00 | 0.28 | 0.28 | 71 | 1008.6 |
| 20260508210519 | 24 | 118 | 6.4 | 20.9 | 0.00 | 0.28 | 0.28 | 73 | 1008.7 |
| 20260508210036 | 24 | 98 | 8.0 | 20.9 | 0.00 | 0.28 | 0.28 | 72 | 1008.7 |
| 20260508205518 | 24 | 115 | 6.4 | 20.9 | 0.00 | 0.28 | 0.28 | 71 | 1008.6 |
| 20260508205020 | 24 | 70 | 4.8 | 19.3 | 0.00 | 0.28 | 0.28 | 71 | 1008.8 |
| 20260508204536 | 23 | 77 | 9.7 | 24.1 | 0.00 | 0.28 | 0.28 | 71 | 1008.9 |
| 20260508204017 | 23 | 150 | 6.4 | 24.1 | 0.00 | 0.28 | 0.28 | 71 | 1009.3 |
| 20260508203517 | 23 | 83 | 6.4 | 19.3 | 0.00 | 0.28 | 0.28 | 72 | 1009.3 |
| 20260508203037 | 23 | 119 | 9.7 | 17.7 | 0.00 | 0.28 | 0.28 | 71 | 1009.7 |
| 20260508202518 | 23 | 134 | 9.7 | 19.3 | 0.00 | 0.28 | 0.28 | 71 | 1010.0 |
| 20260508202017 | 23 | 95 | 9.7 | 19.3 | 0.00 | 0.28 | 0.28 | 70 | 1010.1 |
| 20260508201541 | 23 | 111 | 9.7 | 19.3 | 0.00 | 0.28 | 0.28 | 71 | 1010.1 |
| 20260508201019 | 23 | 141 | 6.4 | 16.1 | 0.00 | 0.28 | 0.28 | 72 | 1010.4 |
| 20260508200517 | 23 | 161 | 8.0 | 19.3 | 0.00 | 0.28 | 0.28 | 71 | 1010.6 |
| 20260508200052 | 23 | 143 | 3.2 | 19.3 | 0.00 | 0.28 | 0.28 | 72 | 1010.6 |
| 20260508195519 | 23 | 146 | 11.3 | 19.3 | 0.00 | 0.28 | 0.28 | 71 | 1010.7 |
| 20260508195019 | 23 | 153 | 8.0 | 16.1 | 0.00 | 0.28 | 0.28 | 70 | 1010.7 |
| 20260508194536 | 24 | 153 | 8.0 | 16.1 | 0.00 | 0.28 | 0.28 | 70 | 1010.7 |
| 20260508194017 | 24 | 144 | 6.4 | 17.7 | 0.00 | 0.28 | 0.28 | 72 | 1010.7 |
| 20260508193519 | 24 | 148 | 9.7 | 17.7 | 0.00 | 0.28 | 0.28 | 70 | 1010.6 |
| 20260508193037 | 24 | 123 | 6.4 | 16.1 | 0.00 | 0.28 | 0.28 | 72 | 1010.8 |
| 20260508192519 | 24 | 143 | 6.4 | 16.1 | 0.00 | 0.28 | 0.28 | 70 | 1010.8 |
| 20260508192020 | 24 | 99 | 4.8 | 16.1 | 0.00 | 0.28 | 0.28 | 71 | 1010.9 |
| 20260508191541 | 24 | 139 | 4.8 | 16.1 | 0.00 | 0.28 | 0.28 | 71 | 1010.8 |
| 20260508191017 | 24 | 148 | 6.4 | 16.1 | 0.00 | 0.28 | 0.28 | 71 | 1010.9 |
| 20260508190518 | 23 | 159 | 4.8 | 12.9 | 0.00 | 0.28 | 0.28 | 71 | 1010.8 |
| 20260508190046 | 23 | 146 | 4.8 | 12.9 | 0.00 | 0.28 | 0.28 | 71 | 1010.9 |
| 20260508185517 | 23 | 154 | 3.2 | 12.9 | 0.00 | 0.28 | 0.28 | 71 | 1010.9 |
| 20260508185017 | 24 | 143 | 4.8 | 12.9 | 0.00 | 0.28 | 0.28 | 69 | 1011.0 |
| 20260508184545 | 24 | 98 | 4.8 | 12.9 | 0.00 | 0.28 | 0.28 | 71 | 1011.1 |
| 20260508184017 | 24 | 62 | 3.2 | 14.5 | 0.00 | 0.28 | 0.28 | 74 | 1011.1 |
| 20260508183519 | 24 | 146 | 4.8 | 14.5 | 0.00 | 0.28 | 0.28 | 74 | 1011.2 |
| 20260508183041 | 24 | 137 | 4.8 | 14.5 | 0.00 | 0.28 | 0.28 | 72 | 1011.2 |
| 20260508182517 | 24 | 152 | 4.8 | 14.5 | 0.00 | 0.28 | 0.28 | 73 | 1011.1 |
| 20260508182019 | 24 | 101 | 1.6 | 9.7 | 0.00 | 0.28 | 0.28 | 73 | 1011.2 |
| 20260508181536 | 23 | 150 | 3.2 | 14.5 | 0.00 | 0.28 | 0.28 | 73 | 1011.4 |
| 20260508181022 | 23 | 134 | 3.2 | 14.5 | 0.00 | 0.28 | 0.28 | 73 | 1011.5 |
| 20260508180518 | 23 | 150 | 6.4 | 14.5 | 0.00 | 0.28 | 0.28 | 73 | 1011.6 |
| 20260508180036 | 23 | 75 | 4.8 | 12.9 | 0.00 | 0.28 | 0.28 | 74 | 1011.6 |
| 20260508175520 | 23 | 125 | 4.8 | 12.9 | 0.00 | 0.28 | 0.28 | 74 | 1011.7 |
| 20260508175018 | 23 | 150 | 4.8 | 12.9 | 0.00 | 0.28 | 0.28 | 73 | 1011.9 |
| 20260508174557 | 23 | 130 | 4.8 | 11.3 | 0.00 | 0.28 | 0.28 | 73 | 1012.0 |